[[{"header":{"parameterUnit":"m.s-1","parameterCategory":1,"la1":30.2991,"la2":30.254,"lo1":-89.0895,"lo2":-89.0444,"dy":0.0017,"dx":0.0017,"nx":28,"ny":28,"refTime":"2024-06-11T21:00:00:Z","depth":0,"parameterNumber":2,"parameterNumberName":"U-component_of_WINDS"},"data":[0,0,0,0,0,0,0,0,0,0,0,0,0,0,0,0,0,0,0,0,0,0,0,0,0,0,0,0,0,0,0,0,0,0,0,0,0,0,0,0,0,0,0,0,0,0,0,0,0,0,0,0,0,0,0,0,0,0,-2.428,-2.428,0,-2.4324,-2.4325,-2.4325,-2.4216,-2.4213,-2.421,-2.4206,-2.4254,-2.4259,-2.4263,0,0,0,0,0,0,0,0,0,0,0,0,0,-2.4102,-2.4105,-2.428,-2.428,-2.4281,-2.4324,-2.4325,-2.4325,-2.4217,-2.4213,-2.4209,-2.4205,-2.4253,-2.4258,-2.4263,0,0,0,0,0,0,0,0,0,0,0,0,0,-2.4166,-2.4107,-2.428,-2.4232,-2.4228,-2.4324,-2.4325,-2.4326,-2.4218,-2.4213,-2.4208,-2.4203,-2.4251,-2.4257,-2.4264,-2.4409,0,0,-2.4285,-2.4288,0,0,0,0,0,0,0,0,-2.4162,-2.4173,-2.4238,-2.4235,-2.4231,-2.4259,-2.4279,-2.4354,-2.4219,-2.4222,-2.4206,-2.42,-2.426,-2.4266,-2.4286,-2.4411,-2.4413,-2.4285,-2.4289,-2.4292,-2.4294,0,0,0,0,0,0,0,-2.4158,-2.417,-2.4297,-2.4239,-2.4235,-2.4209,-2.4212,-2.4293,-2.427,-2.4221,-2.4213,-2.422,-2.4257,-2.428,-2.4286,-2.4414,-2.4285,-2.4291,-2.4295,-2.4298,-2.4661,-2.4667,0,0,0,0,0,0,-2.416,-2.4167,-2.4296,-2.4299,-2.4183,-2.4216,-2.422,-2.4256,-2.4268,-2.4265,-2.4224,-2.4215,-2.4271,-2.4278,-2.4287,-2.4459,-2.4292,-2.4299,-2.4302,-2.4656,-2.4662,-2.4668,0,0,0,0,0,0,-2.4156,-2.4172,-2.4294,-2.4231,-2.4244,-2.4224,-2.4266,-2.4259,-2.4281,-2.4271,-2.4266,-2.4251,-2.4267,-2.4278,-2.438,-2.4459,-2.4302,-2.4308,-2.4649,-2.4658,-2.4665,-2.4803,0,0,0,0,0,0,-2.4152,-2.4172,-2.4226,-2.4233,-2.4248,-2.4386,-2.427,-2.4264,-2.4293,-2.4281,-2.4295,-2.4292,-2.4264,-2.437,-2.4386,-2.4465,-2.4313,-2.4642,-2.4653,-2.4663,-2.4791,-2.4815,-2.4835,0,0,0,0,0,-2.4146,-2.4264,-2.423,-2.4246,-2.4316,-2.4391,-2.4399,-2.4364,-2.43,-2.4355,-2.4348,-2.4292,-2.4447,-2.4381,-2.4399,-2.4481,-2.4637,-2.465,-2.4662,-2.4781,-2.481,-2.4835,0,0,0,0,0,0,-2.4268,-2.4264,-2.4226,-2.435,-2.4371,-2.4372,-2.4441,-2.4395,-2.4436,-2.4423,-2.4377,-2.4381,-2.4492,-2.4496,-2.4423,-2.4622,-2.4531,-2.4548,-2.4616,-2.4643,-2.4665,-2.4663,-2.4319,0,0,0,0,0,-2.4309,-2.437,-2.4363,-2.4473,-2.4485,-2.4461,-2.4492,-2.4463,-2.4483,-2.4492,-2.4493,-2.4516,-2.4569,-2.4606,-2.4655,-2.479,-2.4792,-2.4855,-2.4877,-2.4895,-2.4911,-2.4983,-2.5012,-2.471,-2.471,-2.471,0,0,-2.4396,-2.4401,-2.4442,-2.4497,-2.4511,-2.4575,-2.447,-2.4542,-2.459,-2.4503,-2.46,-2.4601,-2.4623,-2.4743,-2.4795,-2.475,-2.4994,-2.4911,-2.4926,-2.4932,-2.4999,-2.5028,-2.5053,-2.4719,-2.4717,-2.4716,0,0,-2.4587,-2.4596,-2.4689,-2.4704,-2.4725,-2.4708,-2.473,-2.4737,-2.4735,-2.483,-2.4767,-2.4822,-2.4916,-2.4935,-2.4956,-2.5152,-2.5103,-2.5169,-2.5286,-2.5357,-2.5381,-2.5401,-2.5473,-2.5499,-2.5185,-2.5185,-2.5185,0,-2.4692,-2.4786,-2.4742,-2.4819,-2.4846,-2.4769,-2.4863,-2.488,-2.4916,-2.4936,-2.4884,-2.4999,-2.5009,-2.5132,-2.518,-2.5199,-2.5224,-2.5169,-2.538,-2.5401,-2.542,-2.5488,-2.5514,-2.5193,-2.5192,-2.5191,-2.519,0,-2.4915,-2.4981,-2.5053,-2.5089,-2.5123,-2.5209,-2.5179,-2.5218,-2.5185,-2.5174,-2.5272,-2.528,-2.533,-2.5356,-2.5324,-2.5475,-2.5446,-2.5388,-2.5296,-2.5457,-2.552,-2.5546,-2.5205,-2.5202,-2.5199,-2.5197,0,0,-2.5187,-2.5197,-2.5224,-2.524,-2.5256,-2.5307,-2.5388,-2.5435,-2.5471,-2.5498,-2.5566,-2.5646,-2.5592,-2.5617,-2.5586,-2.5648,-2.5804,-2.5582,-2.5582,-2.5625,-2.5972,-2.6018,-2.6048,-2.577,-2.5775,-2.5779,-2.5971,0,-2.5377,-2.5516,-2.5479,-2.5618,-2.5679,-2.5606,-2.5677,-2.5695,-2.5686,-2.5737,-2.5726,-2.5785,-2.5708,-2.5723,-2.578,-2.5773,-2.5874,-2.5758,-2.5834,-2.5838,-2.5834,-2.6081,-2.6129,-2.6311,-2.5995,-2.5999,-2.6002,0,-2.5618,-2.5653,-2.5799,-2.5805,-2.5829,-2.5894,-2.5934,-2.5982,-2.6001,-2.599,-2.6017,-2.5974,-2.6054,-2.596,-2.607,-2.5993,-2.6021,-2.6022,-2.6028,-2.6036,-2.5932,-2.6098,-2.6367,-2.6396,-2.604,-2.6037,-2.6034,0,-2.5804,-2.5888,-2.5986,-2.6001,-2.6011,-2.6058,-2.6064,-2.6077,-2.6108,-2.6143,-2.6162,-2.6206,-2.6231,-2.6267,-2.6236,-2.617,-2.6352,-2.6255,-2.6347,-2.6348,-2.6391,-2.6389,-2.6672,-2.6405,-2.6405,-2.6404,-2.6404,0,-2.6022,-2.6114,-2.607,-2.6131,-2.6232,-2.6187,-2.6289,-2.6287,-2.6299,-2.6358,-2.6296,-2.6354,-2.6309,-2.6362,-2.6338,-2.6434,-2.6445,-2.644,-2.6433,-2.6447,-2.6448,-2.6467,-2.6454,-2.6412,-2.641,-2.6409,-2.6407,0,-2.6249,-2.6222,-2.6325,-2.6324,-2.6326,-2.6401,-2.6401,-2.6457,-2.6442,-2.6518,-2.6533,-2.6511,-2.657,-2.6543,-2.6605,-2.6588,-2.6713,-2.6688,-2.6707,-2.6701,-2.6796,-2.6788,-2.7102,-2.7141,-2.6848,-2.6851,-2.6853,0,-2.6391,-2.646,-2.6466,-2.6501,-2.6511,-2.6568,-2.6599,-2.6557,-2.6592,-2.6617,-2.6671,-2.6724,-2.6765,-2.6863,-2.6853,-2.69,-2.6877,-2.6984,-2.6884,-2.6896,-2.6881,-2.6879,-2.6886,-2.7005,-2.7009,-2.7011,-2.7013,0,-2.6646,-2.6629,-2.6675,-2.6718,-2.6756,-2.6787,-2.6813,-2.6845,-2.6804,-2.6846,-2.6905,-2.6937,-2.6999,-2.7054,-2.7095,-2.7101,-2.7052,-2.7044,-2.7068,-2.7085,-2.7094,-2.7092,-2.6764,-2.7038,-2.7036,-2.7034,-2.7033,-2.7032,-2.6836,-2.6894,-2.6908,-2.6962,-2.6976,-2.7002,-2.7055,-2.7046,-2.7095,-2.7142,-2.7114,-2.7184,-2.72,-2.7249,-2.7262,-2.7316,-2.7274,-2.7309,-2.7318,-2.7328,-2.7341,-2.7083,-2.7323,-2.7322,-2.7322,-2.7321,-2.7321,0,-2.709,-2.7094,-2.7144,-2.7182,-2.7224,-2.7171,-2.7197,-2.7237,-2.7299,-2.7317,-2.7358,-2.7426,-2.7478,-2.7471,-2.7519,-2.7564,-2.7542,-2.7578,-2.7575,-2.7578,-2.7375,-2.7351,-2.7594,-2.7594,-2.7594,-2.7594,-2.7594,-2.7594,-2.7227,-2.7323,-2.7308,-2.7411,-2.7414,-2.7482,-2.7501,-2.7525,-2.7539,-2.7618,-2.7661,-2.7655,-2.7664,-2.7711,-2.7756,-2.7753,-2.7774,-2.7819,-2.7808,-2.7619,-2.7592,-2.7566,-2.7543,-2.7823,-2.7824,-2.8006,-2.8008,-2.8009]},{"header":{"parameterUnit":"m.s-1","parameterCategory":1,"la1":30.2991,"la2":30.254,"lo1":-89.0895,"lo2":-89.0444,"dy":0.0017,"dx":0.0017,"nx":28,"ny":28,"refTime":"2024-06-11T21:00:00:Z","depth":0,"parameterNumber":3,"parameterNumberName":"V-component_of_WINDS"},"data":[0,0,0,0,0,0,0,0,0,0,0,0,0,0,0,0,0,0,0,0,0,0,0,0,0,0,0,0,0,0,0,0,0,0,0,0,0,0,0,0,0,0,0,0,0,0,0,0,0,0,0,0,0,0,0,0,0,0,-4.0634,-4.0634,0,-4.0674,-4.0674,-4.0675,-4.0617,-4.0615,-4.0613,-4.0611,-4.0648,-4.0651,-4.0654,0,0,0,0,0,0,0,0,0,0,0,0,0,-4.0503,-4.0505,-4.0634,-4.0634,-4.0635,-4.0674,-4.0674,-4.0675,-4.0617,-4.0615,-4.0612,-4.061,-4.0647,-4.065,-4.0654,0,0,0,0,0,0,0,0,0,0,0,0,0,-4.0553,-4.0506,-4.0634,-4.0611,-4.0609,-4.0674,-4.0674,-4.0675,-4.0618,-4.0615,-4.0612,-4.0609,-4.0646,-4.065,-4.0654,-4.0742,0,0,-4.0667,-4.0669,0,0,0,0,0,0,0,0,-4.055,-4.0558,-4.0614,-4.0613,-4.0611,-4.0637,-4.0642,-4.0697,-4.0619,-4.0614,-4.0611,-4.0607,-4.0647,-4.0651,-4.0665,-4.0743,-4.0745,-4.0668,-4.067,-4.0672,-4.0674,0,0,0,0,0,0,0,-4.0547,-4.0556,-4.0649,-4.0615,-4.0613,-4.0597,-4.0601,-4.0652,-4.0647,-4.0615,-4.0611,-4.0616,-4.0645,-4.0661,-4.0665,-4.0745,-4.0668,-4.0672,-4.0674,-4.0676,-4.0896,-4.0899,0,0,0,0,0,0,-4.0547,-4.0553,-4.0648,-4.0651,-4.0573,-4.0602,-4.0606,-4.0632,-4.0646,-4.0646,-4.0619,-4.0613,-4.0655,-4.066,-4.0666,-4.0768,-4.0672,-4.0676,-4.0679,-4.0893,-4.0897,-4.09,0,0,0,0,0,0,-4.0544,-4.0556,-4.0647,-4.0601,-4.0611,-4.0607,-4.0637,-4.0634,-4.065,-4.065,-4.0648,-4.0636,-4.0653,-4.066,-4.0723,-4.0769,-4.0678,-4.0682,-4.0889,-4.0894,-4.0899,-4.0974,0,0,0,0,0,0,-4.0541,-4.0555,-4.0589,-4.0602,-4.0614,-4.0705,-4.064,-4.0637,-4.0658,-4.0651,-4.0665,-4.0664,-4.0651,-4.0717,-4.0728,-4.0773,-4.0686,-4.0885,-4.0891,-4.0897,-4.0968,-4.0981,-4.0993,0,0,0,0,0,-4.0536,-4.0608,-4.0591,-4.0603,-4.0657,-4.0707,-4.0714,-4.0698,-4.0662,-4.0695,-4.0695,-4.0664,-4.0763,-4.0724,-4.0735,-4.0783,-4.0882,-4.0889,-4.0897,-4.0962,-4.0978,-4.0992,0,0,0,0,0,0,-4.06,-4.061,-4.0591,-4.067,-4.0688,-4.0698,-4.0739,-4.0716,-4.0744,-4.0737,-4.0714,-4.0718,-4.0785,-4.079,-4.0748,-4.0867,-4.0816,-4.0826,-4.0862,-4.0877,-4.089,-4.0886,-4.0689,0,0,0,0,0,-4.0623,-4.0665,-4.0671,-4.074,-4.075,-4.0743,-4.0765,-4.0751,-4.0769,-4.0776,-4.078,-4.0797,-4.0832,-4.0855,-4.0887,-4.0968,-4.0969,-4.1006,-4.1019,-4.1029,-4.1038,-4.108,-4.1096,-4.0925,-4.0924,-4.0924,0,0,-4.0672,-4.0682,-4.071,-4.0753,-4.0765,-4.0807,-4.075,-4.0797,-4.0827,-4.0782,-4.0842,-4.0846,-4.0863,-4.0936,-4.0968,-4.0942,-4.1085,-4.1038,-4.1047,-4.105,-4.1089,-4.1105,-4.1119,-4.093,-4.0929,-4.0928,0,0,-4.0781,-4.0794,-4.0853,-4.0867,-4.0887,-4.0882,-4.0896,-4.0909,-4.091,-4.097,-4.0937,-4.0972,-4.1032,-4.1046,-4.1061,-4.1175,-4.1147,-4.1186,-4.1251,-4.1292,-4.1306,-4.1318,-4.1357,-4.1372,-4.1195,-4.1195,-4.1195,0,-4.0838,-4.0902,-4.0885,-4.0935,-4.0954,-4.0916,-4.0974,-4.0988,-4.1017,-4.1031,-4.1002,-4.1076,-4.1086,-4.116,-4.1188,-4.1202,-4.1216,-4.1184,-4.1306,-4.1317,-4.1328,-4.1365,-4.138,-4.1199,-4.1199,-4.1198,-4.1198,0,-4.097,-4.1015,-4.1059,-4.109,-4.1114,-4.1167,-4.1157,-4.1184,-4.1168,-4.1165,-4.1226,-4.1236,-4.1269,-4.1286,-4.127,-4.1358,-4.1341,-4.1309,-4.1257,-4.1349,-4.1384,-4.1398,-4.1206,-4.1204,-4.1203,-4.1202,0,0,-4.1121,-4.1142,-4.1158,-4.1171,-4.119,-4.1224,-4.1275,-4.1308,-4.133,-4.1352,-4.1393,-4.1445,-4.1416,-4.1432,-4.1418,-4.1455,-4.1543,-4.1418,-4.1418,-4.144,-4.1638,-4.1661,-4.1678,-4.1525,-4.1528,-4.153,-4.1637,0,-4.1229,-4.1319,-4.1305,-4.1391,-4.1431,-4.1396,-4.144,-4.1456,-4.1455,-4.1487,-4.1485,-4.1522,-4.1482,-4.1491,-4.1526,-4.1525,-4.1582,-4.1517,-4.1561,-4.1563,-4.1557,-4.1697,-4.1721,-4.1822,-4.165,-4.1652,-4.1654,0,-4.1367,-4.1395,-4.1485,-4.1498,-4.1514,-4.1555,-4.1583,-4.1616,-4.1632,-4.1629,-4.1648,-4.1627,-4.1676,-4.1624,-4.169,-4.1646,-4.1664,-4.1666,-4.1669,-4.1672,-4.1613,-4.1702,-4.1853,-4.1868,-4.1676,-4.1674,-4.1672,0,-4.1466,-4.1526,-4.1588,-4.16,-4.1617,-4.1646,-4.1654,-4.1667,-4.1688,-4.1713,-4.1726,-4.1756,-4.1772,-4.1795,-4.1782,-4.1745,-4.185,-4.1797,-4.1847,-4.1848,-4.187,-4.1869,-4.2025,-4.1884,-4.1883,-4.1883,-4.1883,0,-4.1588,-4.1645,-4.1632,-4.167,-4.1732,-4.1715,-4.1775,-4.1779,-4.1792,-4.1828,-4.1799,-4.1834,-4.1815,-4.1848,-4.1838,-4.1894,-4.1901,-4.1899,-4.1895,-4.1901,-4.1901,-4.1911,-4.1903,-4.1887,-4.1886,-4.1885,-4.1885,0,-4.1709,-4.1703,-4.1768,-4.1779,-4.1782,-4.1827,-4.1835,-4.187,-4.1867,-4.1914,-4.1923,-4.1918,-4.1955,-4.1945,-4.1985,-4.1978,-4.2048,-4.2036,-4.2043,-4.204,-4.209,-4.2085,-4.2257,-4.2279,-4.2124,-4.2126,-4.2127,0,-4.1786,-4.1829,-4.1845,-4.1868,-4.1878,-4.1916,-4.1937,-4.1922,-4.1945,-4.1967,-4.1998,-4.2033,-4.206,-4.212,-4.2119,-4.2149,-4.2137,-4.2195,-4.2141,-4.2145,-4.2136,-4.2133,-4.2137,-4.2206,-4.2207,-4.2209,-4.221,0,-4.1924,-4.1919,-4.1952,-4.1983,-4.201,-4.2033,-4.2054,-4.2074,-4.206,-4.2087,-4.2125,-4.2146,-4.2187,-4.2221,-4.2249,-4.2255,-4.223,-4.2227,-4.224,-4.2246,-4.2247,-4.2246,-4.2071,-4.2223,-4.2222,-4.2221,-4.222,-4.222,-4.2025,-4.206,-4.2077,-4.2114,-4.2128,-4.2148,-4.2181,-4.2183,-4.2215,-4.2247,-4.2236,-4.228,-4.2294,-4.2328,-4.2338,-4.2371,-4.2348,-4.2368,-4.2372,-4.2377,-4.2383,-4.2244,-4.2376,-4.2376,-4.2375,-4.2375,-4.2375,0,-4.216,-4.2169,-4.2203,-4.2233,-4.2262,-4.2238,-4.2259,-4.2284,-4.2323,-4.2339,-4.2367,-4.241,-4.2443,-4.2445,-4.2475,-4.2501,-4.249,-4.2509,-4.2507,-4.2508,-4.2402,-4.2387,-4.2518,-4.2518,-4.2518,-4.2517,-4.2517,-4.2517,-4.2233,-4.2292,-4.2289,-4.2355,-4.2363,-4.2406,-4.242,-4.2438,-4.2451,-4.2501,-4.2529,-4.253,-4.254,-4.2571,-4.26,-4.2599,-4.2611,-4.2635,-4.263,-4.253,-4.2516,-4.2502,-4.2488,-4.2638,-4.2638,-4.2734,-4.2734,-4.2735]}]]